Location: Unspecified
(44.0704°N, 88.6889°W)
Time: 12:31:07
(UTC+02:00)

Vanguard 1 - All Passes

Search period start: 16 June 2019 00:00
Search period end: 26 June 2019 00:00
Orbit: 654 x 3829 km, 34.2° (Epoch: 15 June)

Date Brightness Start Highest point End Pass type
(mag) Time Alt. Az. Time Alt. Az. Time Alt. Az.
16 Jun - 10:07:54 10° SSW 10:18:44 21° SSE 10:26:20 10° ESE visible
16 Jun - 12:29:01 10° SW 12:40:31 36° S 12:47:18 10° ESE daylight
16 Jun - 14:52:51 10° WSW 15:01:00 37° S 15:06:06 10° ESE daylight
16 Jun - 17:16:37 10° WSW 17:20:08 16° SSW 17:23:07 10° S daylight
17 Jun - 10:27:13 10° SSW 10:39:52 27° SSE 10:48:07 10° ESE visible
17 Jun - 12:49:52 10° WSW 13:01:32 41° S 13:08:16 10° ESE daylight
17 Jun - 15:14:06 10° WSW 15:21:48 35° SSW 15:26:44 10° SE daylight
17 Jun - 17:38:59 10° SW 17:40:41 11° SW 17:42:16 10° SSW daylight
18 Jun - 08:29:45 10° S 08:38:24 15° SE 08:45:24 10° ESE visible
18 Jun - 10:47:09 10° SW 11:01:00 33° SSE 11:09:31 10° ESE visible
18 Jun - 13:10:56 10° WSW 13:22:30 44° S 13:29:07 10° ESE daylight
18 Jun - 15:35:26 10° WSW 15:42:32 31° SSW 15:47:15 10° SE daylight
19 Jun - 08:47:16 10° S 08:59:32 21° SSE 09:08:34 10° ESE visible
19 Jun - 11:07:32 10° SW 11:22:06 38° SSE 11:30:41 10° E visible
19 Jun - 13:32:08 10° WSW 13:43:27 45° S 13:49:54 10° ESE daylight
19 Jun - 15:56:52 10° W 16:03:11 26° SSW 16:07:35 10° SSE daylight
20 Jun - 09:06:04 10° SSW 09:20:40 26° SSE 09:30:40 10° ESE visible
20 Jun - 11:28:15 10° SW 11:43:12 43° S 11:51:42 10° E visible
20 Jun - 13:53:26 10° WSW 14:04:21 44° S 14:10:38 10° ESE daylight
20 Jun - 16:18:31 10° WSW 16:23:44 20° SSW 16:27:38 10° SSE daylight
21 Jun - 07:11:08 10° SSE 07:18:43 13° SE 07:25:21 10° ESE visible
21 Jun - 09:25:38 10° SSW 09:41:48 32° SSE 09:52:18 10° E visible
21 Jun - 11:49:15 10° WSW 12:04:16 47° S 12:12:39 10° ESE daylight
21 Jun - 14:14:49 10° W 14:25:12 41° SSW 14:31:15 10° SE daylight
21 Jun - 16:40:36 10° WSW 16:44:11 14° SW 16:47:08 10° S daylight
22 Jun - 07:27:16 10° S 07:39:46 19° SE 07:49:45 10° ESE visible
22 Jun - 09:45:43 10° SW 10:02:56 38° SSE 10:13:37 10° E visible
22 Jun - 12:10:26 10° WSW 12:25:19 50° S 12:33:30 10° ESE daylight
22 Jun - 14:36:16 10° W 14:45:57 36° SSW 14:51:47 10° SE daylight
23 Jun - 07:45:22 10° S 08:00:50 25° SE 08:12:25 10° E visible
23 Jun - 10:06:13 10° SW 10:24:05 44° SSE 10:34:46 10° E visible
23 Jun - 12:31:45 10° WSW 12:46:19 51° S 12:54:18 10° ESE daylight
23 Jun - 14:57:48 10° W 15:06:36 31° SSW 15:12:07 10° SSE daylight
24 Jun - 08:04:26 10° SSW 08:21:55 31° SSE 08:34:22 10° E visible
24 Jun - 10:27:02 10° SW 10:45:14 49° SSE 10:55:47 10° E visible
24 Jun - 12:53:10 10° WSW 13:07:17 50° S 13:15:02 10° ESE daylight
24 Jun - 15:19:30 10° W 15:27:07 25° SW 15:32:13 10° SSE daylight
25 Jun - 06:08:40 10° SSE 06:19:38 16° SE 06:29:17 10° ESE visible
25 Jun - 08:24:08 10° SSW 08:43:01 37° SSE 08:55:56 10° E visible
25 Jun - 10:48:06 10° WSW 11:06:22 53° S 11:16:44 10° E visible
25 Jun - 13:14:40 10° W 13:28:10 47° SSW 13:35:41 10° SE daylight
25 Jun - 15:41:30 10° W 15:47:31 19° SW 15:51:55 10° S daylight
